Skip Page Navigation
NASA JPL Caltech
NASA Logo - Jet Propulsion Laboratory + View the NASA Portal
+ Center for Near-Earth Object Studies
JPL Home Earth Solar System Stars & Galaxies Technology
JPL Solar System Dynamics
BODIES ORBITS EPHEMERIDES TOOLS PHYSICAL DATA DISCOVERY FAQ SITE MAP
JPL Small-Body Database Browser
Search: [ help ]  
97488 (2000 CG76)
Classification: Main-belt Asteroid          SPK-ID: 2097488
Ephemeris | Orbit Diagram | Orbital Elements | Mission Design | Physical Parameters | Discovery Circumstances | Close-Approach Data ]

[ show orbit diagram ]
Orbital Elements at Epoch 2459000.5 (2020-May-31.0) TDB
Reference: JPL 17 (heliocentric ecliptic J2000)
 Element Value Uncertainty (1-sigma)   Units 
e .1464741652721667 4.4857e-08  
a 3.198902383091252 3.2534e-08 au
q 2.730345826740816 1.5223e-07 au
i 21.43690930250633 7.2313e-06 deg
node 333.1476697997082 1.1711e-05 deg
peri 251.1414541721687 3.0731e-05 deg
M 144.0671777500247 3.22e-05 deg
tp 2458164.199308654028
(2018-Feb-14.69930865)
0.00017962 TDB
period 2089.776822080478
5.72
3.1881e-05
8.729e-08
d
yr
n .1722671991555547 2.628e-09 deg/d
Q 3.667458939441688 3.7299e-08 au
  Orbit Determination Parameters
   # obs. used (total)      686  
   data-arc span      8840 days (24.20 yr)  
   first obs. used      1996-08-12  
   last obs. used      2020-10-25  
   planetary ephem.      DE431  
   SB-pert. ephem.      SB431-N16  
   condition code      0  
   norm. resid. RMS      .52983  
   source      ORB  
   producer      Otto Matic  
   solution date      2020-Nov-12 20:18:15  

Additional Information
 Earth MOID = 1.81123 au 
 Jupiter MOID = 1.63763 au 
 T_jup = 3.071 
[ hide covariance matrix ]
Orbital Elements at Epoch 2457910.5 (2017-Jun-06.0) TDB
Reference: JPL 17 (heliocentric ecliptic J2000)
 Element Value Uncertainty (1-sigma)   Units 
e .1470403213038494 4.4704e-08  
q 2.729612951502173 1.5177e-07 au
tp 2458166.467753877764
(2018-Feb-16.96775388)
0.00017983 TDB
node 333.2286283057007 1.1699e-05 deg
peri 251.5270335531232 3.077e-05 deg
i 21.4441445599307 7.2341e-06 deg
  Orbit Determination Parameters
   # obs. used (total)      686  
   data-arc span      8840 days (24.20 yr)  
   first obs. used      1996-08-12  
   last obs. used      2020-10-25  
   planetary ephem.      DE431  
   SB-pert. ephem.      SB431-N16  
   condition code      0  
   norm. resid. RMS      .52983  
   source      ORB  
   producer      Otto Matic  
   solution date      2020-Nov-12 20:18:15  

Additional Information
 Jupiter MOID = 1.63763 au 
 T_jup = 3.071 
Orbit Covariance (6×6)
  e q tp node peri i
e 1.998486034798912E-15 -6.678022019399803E-15 -3.901362679574651E-12 -2.977120012007964E-15 -6.311882787075008E-13 1.96352561815212E-15
q -6.678022019399803E-15 2.303305151417545E-14 1.512342655837459E-11 1.232374524670297E-14 2.412687651338185E-12 -4.967028061967107E-15
tp -3.901362679574651E-12 1.512342655837459E-11 3.233718707446916E-8 1.554685526512523E-11 5.132471834630063E-9 -4.18330999263197E-12
node -2.977120012007964E-15 1.232374524670297E-14 1.554685526512523E-11 1.36877634291082E-10 -1.246571152774022E-10 2.358573220979795E-11
peri -6.311882787075008E-13 2.412687651338185E-12 5.132471834630063E-9 -1.246571152774022E-10 9.467889145992908E-10 -2.276580327859486E-11
i 1.96352561815212E-15 -4.967028061967107E-15 -4.18330999263197E-12 2.358573220979795E-11 -2.276580327859486E-11 5.233173757578074E-11

Ephemeris | Orbit Diagram | Orbital Elements | Mission Design | Physical Parameters | Discovery Circumstances | Close-Approach Data ]

Physical Parameter Table
Parameter Symbol Value Units Sigma Reference Notes
absolute magnitude H 14.2   n/a MPO400894  
diameter diameter 7.891 km 0.141 urn:nasa:pds:neowise_diameters_albedos::2.0[mainbelt] (http://adsabs.harvard.edu/abs/2011ApJ...741...68M)  
geometric albedo albedo 0.078   0.012 urn:nasa:pds:neowise_diameters_albedos::2.0[mainbelt] (http://adsabs.harvard.edu/abs/2011ApJ...741...68M)  

97488 (2000 CG76)          Discovered 2000-Feb-05 by Korlevic, K. at Visnjan
Reference: 20050224/Numbers.arcLast Updated: 2005-02-28

[ hide close-approach data ]
Close-Approach Data   ...sorted by Date/Time (TDB)
Date/Time (TDB) Time Uncertainty
(days_HH:MM)
Body Nominal Distance (au) Minimum Distance (au) Maximum Distance (au) V-relative (km/s) V-infinity (km/s) JD (TDB) Time Uncertainty (minutes) Semi-major axis (km) Semi-minor axis (km) range-LOV angle (deg) N-sigma BP Orbit Ref. Reference Modified
1928-Feb-06 15:42 00:04 Jupiter 1.80475791239155 1.80475514185488 1.80476068293572 5.54602526286311 5.4607454820742 2425283.154456206 3.65717883203513 261.917989083893 80.8847228320829 -62.1425171751644 2059687.56610798 T 17 CATAB v2.0f-lin.ifort 2020-Nov-12 20:18:17 2020-Nov-12 20:18
1939-Jul-01 14:10 00:03 Jupiter 1.67213391829556 1.67213297752112 1.67213485907457 5.95519756016353 5.86952078940559 2429446.090220684 2.60952394050476 317.552430761381 42.011698373265 -86.0476435707064 2372384.61134097 T 17 CATAB v2.0f-lin.ifort 2020-Nov-12 20:18:17 2020-Nov-12 20:18
1950-Nov-26 04:24 00:02 Jupiter 1.68196431027497 1.68196311196671 1.68196550860952 6.2215683908464 6.14009207866116 2433611.683039531 2.11509170067004 384.854754572904 26.9941983099522 82.2137592318874 2464870.24717154 T 17 CATAB v2.0f-lin.ifort 2020-Nov-12 20:18:17 2020-Nov-12 20:18
1962-Apr-02 04:55 00:02 Jupiter 1.86101244733015 1.86101051126365 1.86101438344553 6.43901252358509 6.36793536952746 2437756.704748751 1.85299540924586 520.619878410272 32.3193414544895 80.0175400258331 2499228.87282186 T 17 CATAB v2.0f-lin.ifort 2020-Nov-12 20:18:17 2020-Nov-12 20:18
2129-Aug-30 01:46 00:05 Jupiter 1.81569575488073 1.8156922164331 1.8156992933392 5.54931394916934 5.46460289636864 2498902.573795919 5.26829788651551 310.05349918746 92.1848153696891 -57.8237015322826 1927588.79792757 T 17 CATAB v2.0f-lin.ifort 2020-Nov-12 20:18:17 2020-Nov-12 20:18
2141-Jan-17 04:48 00:06 Jupiter 1.71920341481027 1.7192020151157 1.71920481455496 6.03179995466512 5.94955833969294 2503060.699970125 5.56834579298334 587.218949555813 42.5278110844581 -84.2596437249999 2453562.53624222 T 17 CATAB v2.0f-lin.ifort 2020-Nov-12 20:18:17 2020-Nov-12 20:18
2152-Jun-02 16:38 00:07 Jupiter 1.76622929711747 1.76622664591229 1.76623194856371 6.38480210147252 6.30924456738299 2507215.193268816 6.57628473935687 1063.40291672792 24.2877248179474 83.105274561931 2628871.08726167 T 17 CATAB v2.0f-lin.ifort 2020-Nov-12 20:18:17 2020-Nov-12 20:18
2163-Sep-25 16:02 00:08 Jupiter 1.97934882360624 1.97934183948482 1.97935580835581 6.68076199563239 6.61639789242784 2511347.168321953 8.06128232623909 1808.12081181454 30.5487242917752 78.9832043965141 2848945.16635563 T 17 CATAB v2.0f-lin.ifort 2020-Nov-12 20:18:17 2020-Nov-12 20:18
Ephemeris | Orbit Diagram | Orbital Elements | Mission Design | Physical Parameters | Discovery Circumstances | Close-Approach Data ]
ABOUT SSD CREDITS/AWARDS PRIVACY/COPYRIGHT GLOSSARY LINKS
FirstGov 2020-Dec-05 15:50 UT
(server date/time)  
NASA Home Page
Site Manager:   Ryan S. Park
Webmaster  Alan B. Chamberlin